Home > Weather > Langevåg > Past weeks

Flag for Norway Past Weather in Langevåg, Norway — Yesterday and Last 2 Weeks

Now
72 °F

Scattered clouds.


Feels Like: 77 °F
Forecast: 51 / 59 °F
Wind: 5 mph from Northeast

Location: Alesund / Vigra

Current Time: Jun 30, 2016 at 4:16:39 PM

Latest Report: Jun 30, 2016 at 3:20 PM


Visibility: N/A

Pressure: 29.39 "Hg

Humidity: 47%

Dew Point: 50 °F

Location of LangevågLocation

Past Weather in Langevåg — Graph

°F

Langevåg Temperature Yesterday

Maximum temperature yesterday: 64 °F (at 2:50 PM)
Minimum temperature yesterday: 46 °F (at 4:20 AM)
Average temperature yesterday: 56 °F

High & Low Weather Summary for the Past Weeks

 TemperatureHumidityPressure
High72 °F (Jun 30, 2:50 PM)100% (Jun 24, 6:20 AM)30.12 "Hg (Jun 24, 6:20 AM)
Low41 °F (Jun 20, 4:20 AM)43% (Jun 30, 2:20 PM)29.39 "Hg (Jun 30, 2:50 PM)
Average53 °F83%29.84 "Hg
* Reported Jun 15 2:20 PM — Jun 30 2:50 PM, Langevåg, Weather by CustomWeather, © 2016

Note: Actual official high and low records may vary slightly from our data, if they occured in-between our weather recording intervals... More about our weather records

Advertising

Langevåg Weather History for the Previous 24 Hours

Scroll right to see more
 ConditionsComfort  
Time TempWeatherWind HumidityBarometerVisibility
2:50 PM
Thu, Jun 30
72 °FScattered clouds.6 mph47%29.39 "HgN/A
2:20 PM68 °FPassing clouds.6 mph43%29.42 "HgN/A
1:50 PM70 °FPassing clouds.3 mph53%29.42 "HgN/A
1:20 PM66 °FPassing clouds.3 mph60%29.42 "HgN/A
12:50 PM61 °FSunny.3 mph72%29.45 "Hg10 mi
12:20 PM66 °FScattered clouds.6 mph60%29.45 "HgN/A
11:50 AM59 °FScattered clouds.6 mph72%29.45 "HgN/A
11:20 AM63 °FScattered clouds.6 mph68%29.45 "HgN/A
10:50 AM57 °FPartly sunny.6 mph82%29.47 "HgN/A
10:20 AM55 °FPartly sunny.8 mph82%29.47 "HgN/A
9:50 AM55 °FPartly sunny.9 mph82%29.47 "HgN/A
9:20 AM54 °FPartly sunny.12 mph88%29.47 "HgN/A
8:50 AM54 °FSunny.8 mph88%29.50 "Hg10 mi
8:20 AM54 °FClear.6 mph88%29.50 "HgN/A
7:50 AM54 °FPassing clouds.6 mph88%29.50 "HgN/A
7:20 AM54 °FClear.3 mph88%29.53 "HgN/A
6:50 AM54 °FSunny.3 mph88%29.53 "Hg10 mi
6:20 AM54 °FSunny.2 mph88%29.53 "Hg10 mi
5:50 AM52 °FLight rain. Partly sunny.3 mph88%29.56 "HgN/A
5:20 AM52 °FPartly sunny.7 mph88%29.56 "HgN/A
4:50 AM52 °FPartly sunny.7 mph88%29.56 "HgN/A
4:20 AM52 °FPassing clouds.6 mph88%29.56 "HgN/A
3:50 AM52 °FPassing clouds.5 mph88%29.59 "HgN/A
3:20 AM52 °FDrizzle. Overcast.3 mph94%29.59 "HgN/A
2:50 AM52 °FLight rain. Overcast.6 mph88%29.59 "HgN/A
2:20 AM52 °FOvercast.6 mph88%29.59 "HgN/A
1:50 AM52 °FPartly cloudy.5 mph88%29.62 "HgN/A
1:20 AM52 °FPassing clouds.3 mph88%29.62 "HgN/A
12:50 AM52 °FDrizzle. Overcast.No wind88%29.62 "HgN/A
12:20 AM52 °FDrizzle. Overcast.3 mph88%29.65 "HgN/A
11:50 PM
Wed, Jun 29
54 °FDrizzle. Partly sunny.5 mph82%29.65 "HgN/A
11:20 PM52 °FSunny.5 mph88%29.65 "Hg10 mi
10:50 PM54 °FPartly sunny.5 mph82%29.68 "HgN/A
10:20 PM54 °FPartly sunny.No wind82%29.68 "HgN/A
9:50 PM54 °FBroken clouds.5 mph82%29.68 "HgN/A
9:20 PM54 °FBroken clouds.6 mph82%29.68 "HgN/A
8:50 PM55 °FBroken clouds.7 mph77%29.68 "HgN/A
8:20 PM55 °FScattered clouds.8 mph77%29.68 "HgN/A
7:50 PM55 °FScattered clouds.12 mph82%29.68 "HgN/A
7:20 PM59 °FScattered clouds.10 mph68%29.68 "HgN/A
6:50 PM59 °FScattered clouds.13 mph77%29.68 "HgN/A
6:20 PM59 °FScattered clouds.12 mph77%29.68 "HgN/A
5:50 PM63 °FScattered clouds.12 mph68%29.68 "HgN/A
5:20 PM64 °FScattered clouds.7 mph64%29.68 "HgN/A
4:50 PM64 °FThundershowers. Scattered clouds.8 mph68%29.68 "HgN/A
4:20 PM63 °FScattered showers. Broken clouds.9 mph64%29.71 "HgN/A
Weather by CustomWeather, © 2016

See weather overviewHow to use our weather pages